Погода в Магадане

Погода в Магадане : погода сейчас, прогноз погоды и архив. Всё, что Вы хотите узнать о погоде в Магадане!

Хотите узнать прогноз погоды в Магадане? Тогда Вам сюда: Погода в Магадане

Поиск расширенной информации на нашем сайте:

Другие новости

Новости СМИ2

Главная страница сайта

Новости сайта

03.07.2017

Напоминаем, что на нашем специализированном сайте Метеоцентр.Азия вы можете получить высокодетализированные автоматические прогнозы погоды по пунктам России, СНГ и мира в авиационном формате (включающие направление и скорость ветра, видимость, явления погоды, количество и форму облачности, нижнюю и верхнюю границу облачности).

Рекомендуем: Дисконтная программа в магазине www.minisoft.com.ua.

Погода в Магадане - сегодня

Время (UTC), дата Ветер
(°,м/с) 
Видим.   Явления Облачность Т
(°С)
Тd
(°С)
f(%) Тe
(°С)
Pmin
(гПа)
dP
(гПа)
Po
(мм)
O2
(г/м3)
Тmin Tmax R s Состояние
почвы
21 19.07.17 050 (СВ) 20000 м    9/8 600 м кучево-дожд., средняя 
[Cb calv|Ac trans]
+12.7 +8.7 77 +12  1010.9  748  286  +9        сухая 
00 20.07.17 100 (В) 20000 м    9/3 600 м средняя, верхняя 
[Sc|Ac trans|Ci fib]
+16 +8.5 61 +16  1010.7  0.1  748  283           
03 20.07.17 060 (СВ) 20000 м    9/8 600 м средняя 
[Sc|Ac trans]
+15.3 +9.1 66 +16  1010.9  0.2  748  284           
06 20.07.17 310 (СЗ) 20000 м  слаб. ливневой дождь  9/9 600 м кучево-дожд. 
[Cb cap]
+12.4 +9 80 +12  1011.5  0.4  748  287           
09 20.07.17 100 (В) 20000 м  слаб. ливневой дождь  9/9 600 м кучево-дожд. 
[Cb cap]
+12.8 +9.1 78 +13  1011.5  0.1  748  286    +17.3  0.9     
12 20.07.17 110 (В) 7-11{11}  20000 м  слаб. ливневой дождь  10/10 200 м кучево-дожд. 
[Cb cap]
+11.3 +8.4 82 +10  1011.3  -0.3  748  288           
15 20.07.17 090 (В) 5{12}  4000 м  слаб. ливневой дождь  10/10 200 м кучево-дожд. 
[Cb cap]
+10.8 +8.5 86 +10  1011.3  0.1  748  288           
18 20.07.17 080 (В) 4000 м  слаб. ливневой дождь  10/10 200 м кучево-дожд. 
[Cb cap]
+10.5 +8.4 87 +10  1010.3  -1  747  288           
21 20.07.17 070 (В) 4000 м  ливневой дождь  10/10 200 м кучево-дожд. 
[Cb cap]
+10.6 +9.1 90 +10  1010.1  -0.2  747  288  +10.4      влажная 
00 21.07.17 090 (В) 4000 м  ливневой дождь  10/10 200 м кучево-дожд. 
[Cb cap]
+10.9 +9.6 92 +11  1010.2  -0.1  747  288           
03 21.07.17 100 (В) 4000 м  слаб. ливневой дождь  10/10 200 м кучево-дожд. 
[Cb cap]
+11.3 +10 92 +11  1009.8  -0.3  747  287           
06 21.07.17 110 (В) 5{10}  4000 м  слаб. ливневой дождь  10/10 300 м кучево-дожд. 
[Cb cap]
+11.3 +9.3 87 +10  1009.4  -0.4  747  287           
09 21.07.17 070 (В) 20000 м  {ливн. осадки}  10/10 300 м кучево-дожд. 
[Cb calv]
+11.7 +9.5 86 +12  1009.1  -0.3  746  287    +11.9  12     
12 21.07.17 060 (СВ) 10 км  слаб. морось{ливн. осадки}  10/10 300 м 
[St]
+11.7 +10 89 +12  1008.6  -0.5  746  286           
15 21.07.17 070 (В) 20000 м  {морось}  10/10 300 м 
[St]
+11.6 +9.7 88 +13  1007.1  -1.5  745  286           
18 21.07.17 050 (СВ) 4000 м  слаб. морось  10/10 200 м 
[St]
+11.1 +9.5 90 +12  1005.6  -1.5  744  286           
21 21.07.17 050 (СВ) 4000 м  слаб. морось  10/10 200 м кучево-дожд. 
[Cb calv]
+11.3 +9.1 86 +11  1004.1  -1.4  743  286  +11    0.3    мокрая 
00 22.07.17 060 (СВ) 20000 м  {морось}  10/10 300 м кучево-дожд. 
[Cb calv]
+13.1 +9.7 80 +14  1002.5  -1.5  742  283           
03 22.07.17 120 (ЮВ) 4000 м  ливневой дождь  10/10 300 м кучево-дожд. 
[Cb cap]
+13.2 +10.1 81 +16  1001.5  -1  741  283           
06 22.07.17 280 (З) 10 км  слаб. ливневой дождь  9/9 300 м кучево-дожд. 
[Cb cap]
+12.8 +11 89 +16  1001  -0.5  740  283           
09 22.07.17 280 (З) 20000 м  в посл. час туман{ливн. осадки}  9/9 300 м кучево-дожд. 
[Cb calv]
+12.5 +11.3 92 +15  1001  740  283    +14  0.4     
12 22.07.17 260 (З) 20000 м  {ливн. осадки, туман}  9/9 300 м кучево-дожд. 
[Cb calv]
+12.1 +10.4 89 +14  1001.8  0.7  741  284           
15 22.07.17 280 (З) 20000 м    9/9 300 м кучево-дожд. 
[Cb calv]
+11.7 +10.5 92 +14  1001.3  -0.5  741  284           
18 22.07.17 260 (З) 20000 м    9/9 300 м 
[St]
+11.5 +10.4 93 +13  1001.8  0.5  741  285           
21 22.07.17 270 (З) 0500 м  туман  ?/?  
+11.3 +10.3 94 +13  1002.6  0.7  742  285  +11.3        влажная 
Время (UTC), дата Ветер
(°,м/с) 
Видим.   Явления Облачность Т
(°С)
Тd
(°С)
f(%) Тe
(°С)
Pmin
(гПа)
dP
(гПа)
Po
(мм)
O2
(г/м3)
Тmin Tmax R s Состояние
почвы

Для получения пояснительной информации подведите курсор к названию столбца.

ПОГОДА в Магадане - архив

Всё, что Вы хотите узнать о погоде в Магадане - удобно и подробно!

Выберите нужную дату (начиная с 1 января 2015* года) и нажмите кнопку "Найти".
Будут отображены архивные сводки погоды по пункту Магадан, начиная с указанной даты.


Отображать данные в формате CSV (для использования в таблицах Excel)


Внимание! Наш архив погоды предназначен исключительно для личного некоммерческого использования в познавательных целях. Если Вам необходимы официальные справки о состоянии погоды (для производственных, юридических, коммерческих и т.п. целей), обращайтесь в органы Росгидромета.

*Примечание: данная дата относится к архиву по метеостанциям СССР (Россия, СНГ, Балтия).
Архив по метеостанциям Зарубежной Европы и Азии (кроме Китая) хранится 10 дней, по другим регионам земного шара (Китай, Африка, Америка, Австралия, Океания) - 1 день.

Магадан - район местоположения метеостанции


Название, широта, долгота, высота метеостанции:
Магадан (город) 59.6°ш. 150.8°д. 116 м над ур. моря [Российская Федерация]

Дополнительная информация

В oтличие oт бoльшинства пoгoдных сайтoв мы публикуем пoдрoбную метеoинфoрмацию в детальнoм прoфессиoнальнoм фoрмате.

Характеристики температуры и влажнoсти вoздуха измеряются на высoте 2 м в тени вдали oт зданий и деревьев.
Скoрoсть ветра измеряется на высoте 10 м (на урoвне рoста челoвека скoрoсть ветра ниже в 1.5-2 раза). Если метеoстанция нахoдится в гoрoде или в лесу, тo скoрoсть ветра занижена на 2-4 м/с пo сравнению с oткрытым местoм. Скoрoсть ветра над акватoриями крупных рек и oзёр, а также на вершинах хoлмoв на 2-5 м/с выше, чем в oбычных услoвиях.
Атмoсфернoе давление в разных тoчках местнoсти мoжет значительнo oтличаться oт давления на метеoстанции, в зависимoсти oт услoвий рельефа (при пoдъёме на 10 м давление пoнижается примернo на 1 мм рт.ст.).